Location: Stillwell
(40.4602°N, 82.0928°W)
Time: 17:36:37
(UTC-04:00)

Helios 1A - Pass Details

Date: 25 May 2018
Orbit: 585 x 604 km, 98.2° (Epoch: 17 August)

Event Time Altitude Azimuth Distance (km) Brightness Sun altitude
Exits shadow 22:42:01 38° 138° (SE) 897 3.3 -17.7°
Maximum altitude 22:43:24 62° 74° (ENE) 660 3.0 -17.8°
Drops below altitude 10° 22:47:30 10° 354° (N) 1,916 6.4 -18.3°
Sets 22:49:41 0° 351° (N) 2,822 7.5 -18.6°
